SCP
-0 -0 0 0 0 0 0 0 0 0 0 0 0 0 0 0 0 0 0 0 -0 0 0 0 0 -0 0 0 -0 0 -0 -0 -0 0 0 0 0 0
0 0 0 0 0 0 0 0 0 0 0 0 0 0 0 0 0 0 0 0 0 -0 -0 -0 -0 -0 0 0 0 -0 0 0 0 0 0 0 0 0
-0 0 0 0 0 0 0 0 0 0 0 0 0 0 0 0 0 0 0 0 0 -0 -0 -0 -0 0 0 0 -0 0 0 0 0 0 0 0 0 0
-0 0 0 0 0 0 0 0 0 0 0 0 0 0 0 0 0 0 0 -0 -0 -0 -0 -0 0 -0 0 0 0 0 0 0 0 0 0 0 0 0
-0 0 0 -0 0 0 0 0 0 0 0 0 -0 0 0 0 0 0 0 0 -0 0 0 -0 -0 -0 0 -0 0 0 0 0 0 0 0 0 0 0
-0 -0 0 0 0 0 0 0 0 0 0 0 0 0 0 0 0 0 0 0 0 0 -0 -0 -0 -0 -0 -0 -0 -0 0 0 0 0 0 0 0 0
0 0 -0 0 0 0 0 0 0 0 0 0 0 0 0 0 0 0 0 0 0 0 -0 -0 -0 -0 -0 -0 -0 -0 0 0 0 0 0 0 0 0
0 0 0 0 0 0 0 0 0 0 0 0 0 0 0 0 -0 -0 0 0 -0 -0 -0 -0 -0 -0 0 0 0 0 0 0 0 0 0 0 0 0
0 0 0 -0 0 0 0 -0 0 -0 0 0 0 0 -0 -0 -0 -0 -0 0 -0 -0 -0 -0 0 0 0 0 0 0 0 0 0 0 0 0 0 0
0 -0 -0 -0 -0 -0 0 0 -0 0 0 0 0 0 -0 -0 -0 -0 0 -0 -0 -0 -0 0 0 0 0 0 0 0 0 0 0 0 0 0 0 0
0 -0 0 -0 -0 0 0 0 -0 0 0 0 0 0 -0 0 0 0 -0 -0 0 0 0 0 0 0 0 0 0 0 0 0 0 0 0 0 0 -0
0 0 0 0 0 -0 0 0 0 0 0 0 -0 0 0 0 -0 -0 0 0 0 0 0 0 0 0 0 0 0 0 0 0 0 0 0 0 0 0
0 0 0 -0 -0 0 0 0 0 0 0 0 0 0 -0 -0 -0 -0 -0 0 0 0 0 0 0 0 0 0 0 0 0 0 0 0 0 0 0 0
0 0 -0 -0 0 0 0 0 -0 -0 -0 -0 -0 0 0 0 0 0 0 0 0 0 0 0 0 0 0 0 0 0 0 0 0 0 0 0 0 0
0 -0 -0 -0 -0 0 0 -0 -0 0 -0 0 -0 -0 0 0 0 0 0 0 0 0 0 0 0 0 0 0 0 0 0 0 0 0 0 0 0 0
-0 0 -0 -0 -0 -0 -0 0 -0 0 0 0 -0 -0 -0 0 0 0 0 0 0 0 0 0 0 0 0 0 0 0 0 0 0 0 0 0 0 0
-0 -0 -0 -0 0 0 0 0 0 0 0 -0 -0 0 0 0 0 0 0 0 0 0 0 0 0 0 0 0 0 0 0 0 0 0 0 0 0 0
0 0 0 0 0 0 0 -0 -0 -0 0 0 0 0 0 0 0 0 0 0 0 0 0 0 0 0 0 0 0 0 0 0 0 0 0 0 0 0
0 0 0 0 0 0 -0 -0 -0 0 0 0 0 0 0 0 0 0 0 0 0 0 0 0 0 0 0 0 0 0 0 0 0 0 0 0 0 0
0 0 0 0 0 -0 -0 -0 -0 0 0 0 0 0 0 0 0 0 0 0 0 0 0 0 0 0 0 0 0 0 0 0 0 0 0 0 0 0
-0 0 -0 -0 0 0 0 0 0 0 0 0 0 0 0 0 0 0 0 0 0 0 0 0 0 0 0 0 0 0 0 0 0 0 0 0 0 0
0 -0 0 -0 0 0 0 0 0 0 0 0 0 0 0 0 0 0 0 0 0 0 0 0 0 0 0 0 0 0 0 0 0 0 0 0 0 0
0 0 0 0 0 0 0 0 0 0 0 0 0 0 0 0 0 0 0 0 0 0 0 0 0 0 0 0 0 0 0 0 0 0 0 0 0 0
Wind_Speed_500mb
11 16 12 9 23 22 28 29 36 33 31 55 69 75 80 81 77 65 66 60 49 42 36 34 33 32 29 20 14 12 10 7 3 2 4 10 14 19
17 17 14 21 29 22 21 17 41 50 31 61 81 88 86 79 69 62 57 53 46 39 33 32 33 33 26 20 14 10 6 4 2 8 12 16 21 26
17 21 24 33 30 29 40 43 49 47 56 70 93 81 72 66 61 54 49 45 39 35 33 32 32 29 24 17 12 7 3 6 9 14 19 23 28 31
20 26 22 35 33 38 38 50 42 43 59 77 92 62 68 63 61 53 46 40 36 34 31 28 26 24 20 15 9 6 6 12 16 22 25 29 33 35
21 24 27 30 27 35 43 45 39 51 55 73 85 74 77 65 57 46 43 42 37 33 31 27 23 19 15 11 7 7 12 16 17 18 20 24 29 32
26 27 29 26 31 32 41 37 40 59 65 68 72 63 62 56 54 43 41 40 35 33 30 26 22 19 13 8 4 5 4 8 16 23 27 28 30 34
30 30 29 27 31 34 36 41 53 56 57 61 63 70 52 57 50 41 42 38 37 32 30 26 19 16 15 13 8 2 11 19 22 23 25 29 34 38
33 33 33 31 34 30 29 32 34 53 55 61 65 64 68 58 48 45 46 45 39 31 29 32 24 26 20 11 6 11 14 17 20 24 29 33 37 39
34 35 38 42 37 31 30 30 49 45 50 57 72 54 59 54 40 46 44 41 37 39 33 36 26 18 12 7 4 11 15 20 25 29 31 31 30 30
39 42 49 47 46 50 55 51 48 54 50 43 42 45 44 44 40 45 50 45 34 39 31 29 23 16 12 5 1 10 18 24 27 26 25 27 30 33
42 48 44 50 49 48 47 55 56 40 32 38 40 42 45 46 48 49 45 36 35 35 30 21 26 18 13 5 4 13 20 19 19 25 29 32 36 41
46 51 48 49 48 39 36 38 41 41 45 48 48 49 48 45 40 34 30 29 31 31 32 25 26 22 10 10 6 11 13 13 23 28 32 38 41 43
47 50 52 42 39 33 36 37 36 37 41 40 40 41 40 37 34 30 30 23 27 16 33 29 23 22 14 9 8 7 11 16 22 29 32 36 42 47
51 50 46 39 35 34 37 38 39 40 42 40 37 38 38 37 35 33 30 28 26 17 20 20 17 20 18 12 5 6 12 16 25 28 32 39 46 50
45 46 41 38 36 38 40 36 31 29 29 29 29 33 33 32 31 28 23 22 20 17 17 14 16 14 10 8 4 4 11 11 25 31 33 36 39 43
36 35 34 34 36 36 35 33 29 24 21 21 26 26 26 26 24 24 24 22 14 14 14 16 15 10 4 1 2 4 10 8 23 31 35 36 37 39
34 32 34 37 39 40 39 35 31 26 23 23 22 22 23 23 24 25 23 19 18 17 20 18 12 7 6 5 2 6 11 17 24 30 34 33 34 35
34 34 37 38 40 42 42 40 37 34 31 28 27 25 24 25 30 34 31 27 23 24 22 19 17 11 5 7 8 10 13 19 24 28 32 31 26 29
36 38 38 40 43 44 44 44 43 41 37 35 34 32 31 33 33 39 38 35 31 28 24 24 21 15 9 6 11 10 14 19 23 25 29 31 32 27
44 38 42 43 44 46 48 48 47 47 44 44 43 41 41 39 39 45 44 41 36 35 31 28 19 13 9 8 11 13 15 19 22 25 29 34 37 33
57 54 51 48 48 47 49 51 53 54 54 53 51 50 48 46 49 47 45 42 40 40 32 26 14 14 12 9 10 14 19 20 24 28 32 35 36 26
61 61 61 60 57 52 51 50 55 60 62 62 60 57 55 53 53 50 47 50 47 33 26 19 18 18 17 11 11 11 15 22 26 30 33 35 34 25
67 65 63 64 64 63 60 60 59 61 62 64 66 64 62 60 59 59 58 54 50 40 40 31 30 27 22 16 14 13 13 15 18 20 24 32 34 36
Wind_Direction_500mb
182 177 202 206 156 144 160 151 173 144 131 119 136 156 153 140 146 142 148 147 149 150 158 169 155 145 136 147 141 131 130 123 110 53 310 313 316 312
179 203 201 174 163 180 204 183 187 163 132 138 142 140 142 146 149 154 151 147 144 151 154 144 147 144 149 147 147 140 136 126 278 301 305 303 300 299
182 196 188 181 167 169 165 173 175 164 140 138 146 140 143 143 143 151 142 138 144 147 146 147 145 148 157 155 160 159 184 269 304 299 295 300 298 303
130 129 143 174 160 161 149 160 159 157 145 147 154 152 150 152 149 142 136 136 138 136 135 137 144 152 157 165 172 212 274 289 294 291 294 299 298 298
124 129 143 150 141 157 164 153 148 153 152 149 163 144 151 150 139 130 140 133 132 133 135 142 145 149 154 173 202 252 280 282 294 307 319 321 319 315
120 123 134 136 137 142 146 149 155 150 152 157 167 149 147 147 133 136 133 134 137 132 135 136 148 157 172 200 239 262 290 321 334 335 335 327 321 324
121 122 127 143 136 134 138 147 155 151 153 162 161 171 152 149 146 148 143 139 138 143 146 151 155 155 146 144 126 20 353 349 341 339 332 330 328 328
121 120 129 137 142 135 131 139 148 153 155 168 165 168 161 158 155 155 149 148 141 153 157 136 142 150 143 132 71 4 351 350 346 340 339 339 339 336
139 130 126 133 135 139 155 145 148 152 150 142 156 154 154 156 156 159 156 153 156 154 161 142 151 147 143 132 42 353 352 352 352 351 349 348 345 344
142 137 149 135 127 126 130 132 136 137 133 139 139 146 152 154 160 162 162 160 155 157 165 138 159 168 167 147 355 351 357 356 358 357 356 2 2 360
142 148 144 134 131 132 136 137 140 140 126 133 140 145 148 151 156 161 164 168 162 171 174 183 178 181 181 204 319 358 356 355 356 1 6 9 6 3
144 145 141 136 132 129 133 137 139 139 135 133 133 140 148 153 160 170 178 169 172 167 192 189 188 194 188 213 303 344 348 356 10 9 5 6 3 1
150 143 144 141 131 129 133 137 141 143 144 145 147 156 162 166 172 175 173 175 184 192 191 202 193 195 184 200 247 308 353 11 15 12 6 1 359 1
138 141 144 142 135 133 138 134 130 143 152 151 149 154 162 166 169 174 178 180 193 201 185 194 193 180 189 180 189 346 357 3 10 8 4 1 1 359
149 151 152 153 150 149 149 148 142 141 147 158 165 166 166 170 175 179 184 186 188 186 178 169 176 180 168 151 115 4 357 348 3 1 4 2 1 359
167 172 174 174 172 170 171 169 167 167 168 177 180 179 178 180 186 187 184 181 188 181 177 178 186 174 177 168 302 340 12 357 358 1 2 360 357 356
174 177 182 186 189 190 193 195 197 192 194 197 199 200 202 203 197 197 198 202 214 202 186 187 194 195 205 214 313 355 2 359 1 360 1 358 354 355
186 191 195 196 198 202 206 210 210 210 211 208 209 217 224 222 216 211 210 211 216 204 196 197 198 201 219 257 301 337 357 3 355 358 359 359 354 346
206 210 211 212 213 214 216 218 219 219 220 220 222 227 227 225 226 217 216 216 213 207 206 209 201 194 208 231 284 332 3 355 354 355 356 357 351 341
215 216 220 223 222 223 223 224 225 227 228 230 231 232 232 235 231 222 222 222 218 208 206 198 191 206 205 227 263 323 344 352 354 355 355 353 352 347
227 228 228 230 229 230 230 231 232 233 233 234 236 238 237 238 230 224 223 224 217 205 196 195 218 227 236 256 295 318 336 348 353 357 354 357 357 351
232 234 235 234 235 234 234 236 236 236 236 237 239 242 242 240 230 223 221 216 204 203 203 194 212 255 270 276 283 308 330 341 350 351 354 357 358 350
237 238 237 238 237 238 237 237 239 241 242 244 245 245 242 238 232 228 227 217 205 205 207 213 218 249 268 263 278 295 321 343 344 344 340 348 353 357
Wind_Speed_850mb
11 16 12 9 23 22 28 29 36 33 31 55 69 75 80 81 77 65 66 60 49 42 36 34 33 32 29 20 14 12 10 7 3 2 4 10 14 19
17 17 14 21 29 22 21 17 41 50 31 61 81 88 86 79 69 62 57 53 46 39 33 32 33 33 26 20 14 10 6 4 2 8 12 16 21 26
17 21 24 33 30 29 40 43 49 47 56 70 93 81 72 66 61 54 49 45 39 35 33 32 32 29 24 17 12 7 3 6 9 14 19 23 28 31
20 26 22 35 33 38 38 50 42 43 59 77 92 62 68 63 61 53 46 40 36 34 31 28 26 24 20 15 9 6 6 12 16 22 25 29 33 35
21 24 27 30 27 35 43 45 39 51 55 73 85 74 77 65 57 46 43 42 37 33 31 27 23 19 15 11 7 7 12 16 17 18 20 24 29 32
26 27 29 26 31 32 41 37 40 59 65 68 72 63 62 56 54 43 41 40 35 33 30 26 22 19 13 8 4 5 4 8 16 23 27 28 30 34
30 30 29 27 31 34 36 41 53 56 57 61 63 70 52 57 50 41 42 38 37 32 30 26 19 16 15 13 8 2 11 19 22 23 25 29 34 38
33 33 33 31 34 30 29 32 34 53 55 61 65 64 68 58 48 45 46 45 39 31 29 32 24 26 20 11 6 11 14 17 20 24 29 33 37 39
34 35 38 42 37 31 30 30 49 45 50 57 72 54 59 54 40 46 44 41 37 39 33 36 26 18 12 7 4 11 15 20 25 29 31 31 30 30
39 42 49 47 46 50 55 51 48 54 50 43 42 45 44 44 40 45 50 45 34 39 31 29 23 16 12 5 1 10 18 24 27 26 25 27 30 33
42 48 44 50 49 48 47 55 56 40 32 38 40 42 45 46 48 49 45 36 35 35 30 21 26 18 13 5 4 13 20 19 19 25 29 32 36 41
46 51 48 49 48 39 36 38 41 41 45 48 48 49 48 45 40 34 30 29 31 31 32 25 26 22 10 10 6 11 13 13 23 28 32 38 41 43
47 50 52 42 39 33 36 37 36 37 41 40 40 41 40 37 34 30 30 23 27 16 33 29 23 22 14 9 8 7 11 16 22 29 32 36 42 47
51 50 46 39 35 34 37 38 39 40 42 40 37 38 38 37 35 33 30 28 26 17 20 20 17 20 18 12 5 6 12 16 25 28 32 39 46 50
45 46 41 38 36 38 40 36 31 29 29 29 29 33 33 32 31 28 23 22 20 17 17 14 16 14 10 8 4 4 11 11 25 31 33 36 39 43
36 35 34 34 36 36 35 33 29 24 21 21 26 26 26 26 24 24 24 22 14 14 14 16 15 10 4 1 2 4 10 8 23 31 35 36 37 39
34 32 34 37 39 40 39 35 31 26 23 23 22 22 23 23 24 25 23 19 18 17 20 18 12 7 6 5 2 6 11 17 24 30 34 33 34 35
34 34 37 38 40 42 42 40 37 34 31 28 27 25 24 25 30 34 31 27 23 24 22 19 17 11 5 7 8 10 13 19 24 28 32 31 26 29
36 38 38 40 43 44 44 44 43 41 37 35 34 32 31 33 33 39 38 35 31 28 24 24 21 15 9 6 11 10 14 19 23 25 29 31 32 27
44 38 42 43 44 46 48 48 47 47 44 44 43 41 41 39 39 45 44 41 36 35 31 28 19 13 9 8 11 13 15 19 22 25 29 34 37 33
57 54 51 48 48 47 49 51 53 54 54 53 51 50 48 46 49 47 45 42 40 40 32 26 14 14 12 9 10 14 19 20 24 28 32 35 36 26
61 61 61 60 57 52 51 50 55 60 62 62 60 57 55 53 53 50 47 50 47 33 26 19 18 18 17 11 11 11 15 22 26 30 33 35 34 25
67 65 63 64 64 63 60 60 59 61 62 64 66 64 62 60 59 59 58 54 50 40 40 31 30 27 22 16 14 13 13 15 18 20 24 32 34 36
Wind_Direction_850mb
182 177 202 206 156 144 160 151 173 144 131 119 136 156 153 140 146 142 148 147 149 150 158 169 155 145 136 147 141 131 130 123 110 53 310 313 316 312
179 203 201 174 163 180 204 183 187 163 132 138 142 140 142 146 149 154 151 147 144 151 154 144 147 144 149 147 147 140 136 126 278 301 305 303 300 299
182 196 188 181 167 169 165 173 175 164 140 138 146 140 143 143 143 151 142 138 144 147 146 147 145 148 157 155 160 159 184 269 304 299 295 300 298 303
130 129 143 174 160 161 149 160 159 157 145 147 154 152 150 152 149 142 136 136 138 136 135 137 144 152 157 165 172 212 274 289 294 291 294 299 298 298
124 129 143 150 141 157 164 153 148 153 152 149 163 144 151 150 139 130 140 133 132 133 135 142 145 149 154 173 202 252 280 282 294 307 319 321 319 315
120 123 134 136 137 142 146 149 155 150 152 157 167 149 147 147 133 136 133 134 137 132 135 136 148 157 172 200 239 262 290 321 334 335 335 327 321 324
121 122 127 143 136 134 138 147 155 151 153 162 161 171 152 149 146 148 143 139 138 143 146 151 155 155 146 144 126 20 353 349 341 339 332 330 328 328
121 120 129 137 142 135 131 139 148 153 155 168 165 168 161 158 155 155 149 148 141 153 157 136 142 150 143 132 71 4 351 350 346 340 339 339 339 336
139 130 126 133 135 139 155 145 148 152 150 142 156 154 154 156 156 159 156 153 156 154 161 142 151 147 143 132 42 353 352 352 352 351 349 348 345 344
142 137 149 135 127 126 130 132 136 137 133 139 139 146 152 154 160 162 162 160 155 157 165 138 159 168 167 147 355 351 357 356 358 357 356 2 2 360
142 148 144 134 131 132 136 137 140 140 126 133 140 145 148 151 156 161 164 168 162 171 174 183 178 181 181 204 319 358 356 355 356 1 6 9 6 3
144 145 141 136 132 129 133 137 139 139 135 133 133 140 148 153 160 170 178 169 172 167 192 189 188 194 188 213 303 344 348 356 10 9 5 6 3 1
150 143 144 141 131 129 133 137 141 143 144 145 147 156 162 166 172 175 173 175 184 192 191 202 193 195 184 200 247 308 353 11 15 12 6 1 359 1
138 141 144 142 135 133 138 134 130 143 152 151 149 154 162 166 169 174 178 180 193 201 185 194 193 180 189 180 189 346 357 3 10 8 4 1 1 359
149 151 152 153 150 149 149 148 142 141 147 158 165 166 166 170 175 179 184 186 188 186 178 169 176 180 168 151 115 4 357 348 3 1 4 2 1 359
167 172 174 174 172 170 171 169 167 167 168 177 180 179 178 180 186 187 184 181 188 181 177 178 186 174 177 168 302 340 12 357 358 1 2 360 357 356
174 177 182 186 189 190 193 195 197 192 194 197 199 200 202 203 197 197 198 202 214 202 186 187 194 195 205 214 313 355 2 359 1 360 1 358 354 355
186 191 195 196 198 202 206 210 210 210 211 208 209 217 224 222 216 211 210 211 216 204 196 197 198 201 219 257 301 337 357 3 355 358 359 359 354 346
206 210 211 212 213 214 216 218 219 219 220 220 222 227 227 225 226 217 216 216 213 207 206 209 201 194 208 231 284 332 3 355 354 355 356 357 351 341
215 216 220 223 222 223 223 224 225 227 228 230 231 232 232 235 231 222 222 222 218 208 206 198 191 206 205 227 263 323 344 352 354 355 355 353 352 347
227 228 228 230 229 230 230 231 232 233 233 234 236 238 237 238 230 224 223 224 217 205 196 195 218 227 236 256 295 318 336 348 353 357 354 357 357 351
232 234 235 234 235 234 234 236 236 236 236 237 239 242 242 240 230 223 221 216 204 203 203 194 212 255 270 276 283 308 330 341 350 351 354 357 358 350
237 238 237 238 237 238 237 237 239 241 242 244 245 245 242 238 232 228 227 217 205 205 207 213 218 249 268 263 278 295 321 343 344 344 340 348 353 357